Theta_e
350 349 348 346 342 337 330 328 328 328 328 328 328 328 327 327 327 326 327 326 326 325 324 326 326 327 329 330 331 334 337 339 339 340 341 341 341 341 341 342 342 341 342 343 343 342 342 342 340 341 343 343 343 344 345 345 344 344 343 339 336 336 334 334 335 333 334 336 334 333 335 336 335 334 332 330 330 331 332 334 338 341 345 347 348
351 351 349 348 346 342 336 331 328 327 328 328 328 328 327 327 326 326 326 326 325 324 324 325 326 327 328 330 330 331 334 337 339 340 340 339 340 340 340 341 341 341 340 341 342 342 342 342 341 341 341 341 339 339 340 341 340 340 341 340 340 340 340 342 343 340 337 338 337 335 334 333 332 331 330 329 329 329 331 336 340 344 346 348 349
352 351 351 350 349 346 343 337 333 329 328 327 327 327 327 326 326 325 325 325 324 324 325 326 326 327 328 331 331 330 331 333 336 339 340 340 339 339 339 339 340 340 340 340 340 341 341 341 341 341 342 342 340 339 339 340 340 340 340 339 339 341 343 347 347 345 340 336 334 334 332 330 329 330 329 328 328 330 332 336 342 345 347 349 350
353 352 352 352 351 349 346 344 340 335 330 328 327 327 326 326 325 325 325 324 324 324 325 326 326 327 329 330 331 330 330 330 333 336 339 339 339 338 338 338 338 339 339 338 339 340 340 340 340 340 342 341 341 340 340 340 340 340 340 340 340 340 342 346 348 347 344 338 333 333 332 329 328 329 329 328 328 330 332 337 343 345 347 350 350
354 353 353 353 352 351 349 347 345 342 336 331 329 328 327 327 326 326 325 325 325 325 326 326 326 327 329 331 332 331 331 330 331 333 335 338 338 338 338 338 338 338 338 338 338 339 339 339 339 339 341 341 341 340 340 340 340 340 340 340 340 339 341 345 347 348 347 342 336 334 332 330 329 329 328 328 328 328 331 338 342 346 349 350 348
354 354 354 354 353 353 352 350 347 345 341 337 332 330 330 328 327 327 326 326 326 326 326 327 326 328 330 331 333 332 332 331 331 331 333 335 337 338 338 338 338 337 338 338 338 338 338 338 338 339 338 338 338 338 338 339 338 339 339 339 339 339 340 343 345 347 346 342 338 335 332 329 329 328 328 329 329 329 332 336 339 344 349 349 347
355 355 355 355 354 353 353 352 351 348 345 342 337 334 332 331 329 328 327 327 327 327 328 327 328 328 330 332 333 333 332 332 331 331 332 333 335 336 337 337 337 337 337 337 337 337 337 337 338 338 338 336 335 334 334 334 334 335 335 335 336 337 339 340 341 343 342 341 339 336 332 331 330 329 328 328 329 330 333 335 336 342 346 346 345
356 356 356 355 355 355 354 354 353 351 348 346 342 339 336 334 333 331 330 329 328 329 330 330 330 331 331 332 333 333 334 333 333 332 332 332 334 335 336 336 336 335 336 336 337 337 337 337 337 337 338 337 336 334 334 333 333 332 332 332 333 334 337 338 338 340 341 340 338 334 332 330 330 329 327 327 330 331 333 336 339 341 341 341 344
356 357 356 356 356 356 355 355 354 353 351 349 346 344 341 338 337 335 333 332 331 331 331 332 332 332 333 334 334 335 336 335 334 333 332 332 333 334 335 336 335 335 335 335 335 336 336 336 336 337 336 336 335 335 335 334 335 334 333 333 334 335 337 338 339 339 338 336 335 333 332 330 328 328 327 328 330 331 333 337 340 340 340 341 345
358 357 357 358 357 357 357 356 355 355 354 353 351 348 346 343 341 339 337 335 334 334 334 334 334 334 334 334 335 336 337 337 335 333 332 331 332 332 333 334 334 335 335 335 335 335 334 334 334 335 335 334 334 333 333 334 334 335 335 335 336 337 337 338 338 337 336 334 332 332 331 329 328 328 328 328 330 332 335 338 339 341 343 345 345
359 359 358 358 359 358 358 358 357 357 356 356 355 353 350 347 345 342 341 340 338 337 337 337 336 336 335 336 336 337 338 337 336 334 333 332 332 332 331 331 333 333 334 334 335 334 334 333 333 333 332 332 331 331 330 331 332 334 334 335 336 338 339 340 340 340 339 337 334 332 331 328 328 328 328 330 333 336 339 341 343 346 349 350 347
358 359 360 359 357 356 355 356 358 359 359 359 358 357 355 351 348 346 344 343 343 342 341 340 339 338 338 338 339 339 339 338 337 335 334 334 334 334 333 331 331 332 333 333 333 334 333 332 333 332 332 331 330 330 330 330 331 331 333 336 340 342 343 345 345 344 343 342 339 336 332 329 327 328 330 334 338 341 344 346 348 350 350 351 348
357 358 358 357 357 354 349 345 349 356 360 361 360 359 357 354 352 350 347 346 346 346 345 343 342 341 341 340 341 340 340 340 338 337 335 335 335 336 335 334 333 333 332 332 333 333 332 332 332 331 331 331 330 330 329 328 328 328 331 336 343 346 347 348 347 346 346 345 343 337 331 330 329 329 334 340 344 346 348 350 351 352 351 351 348
356 357 356 356 356 355 353 346 342 346 356 362 362 360 359 356 354 352 350 348 348 348 348 346 344 344 343 343 342 342 341 341 340 339 338 336 337 337 338 337 336 335 334 334 334 333 333 332 332 331 332 331 330 330 329 328 327 327 329 334 340 344 347 348 348 347 346 345 341 335 331 333 334 333 338 344 346 350 351 352 352 352 351 351 348
356 356 357 356 356 356 356 354 350 347 350 359 363 362 361 359 356 354 352 350 349 349 349 348 347 346 345 345 344 344 343 342 341 341 340 339 340 340 341 342 340 338 337 337 336 336 334 334 332 332 332 331 331 332 331 331 330 330 331 334 337 340 343 344 344 343 343 342 340 338 336 336 337 336 337 339 342 347 352 353 354 353 352 352 350
357 357 357 357 357 357 356 355 355 353 351 354 361 363 363 361 358 356 353 352 350 350 350 349 349 349 348 347 347 346 344 343 342 341 341 342 343 343 344 344 344 343 340 339 339 338 337 336 334 333 332 331 332 332 333 335 335 335 335 335 337 340 341 341 342 343 344 343 342 342 341 339 337 335 333 332 335 343 350 353 354 354 354 354 352
355 356 357 357 357 356 355 353 354 355 354 354 357 362 364 363 361 358 356 354 352 351 351 351 351 350 351 350 349 348 346 344 343 342 342 343 345 347 347 347 347 345 342 341 340 339 339 338 335 334 333 332 332 331 333 337 337 338 338 337 338 341 340 338 340 343 343 343 345 345 342 338 335 334 332 331 332 339 347 350 352 354 355 356 353
356 356 355 356 356 356 355 354 353 354 356 356 358 361 363 363 362 360 358 355 353 352 352 352 351 352 352 352 351 350 348 346 344 343 343 345 347 348 348 348 348 347 344 342 341 341 340 340 338 337 335 333 332 332 334 337 339 340 340 340 340 339 335 332 335 337 338 340 342 342 339 334 332 330 330 330 332 337 343 347 351 355 357 356 354
358 357 357 355 355 355 355 355 355 355 355 356 359 362 363 364 363 362 359 357 355 353 352 352 353 353 354 354 353 352 350 348 346 345 344 346 349 349 350 350 349 348 346 344 343 343 342 340 339 338 335 332 332 333 334 338 341 340 340 342 342 338 333 331 334 335 336 337 339 339 336 333 330 329 329 331 333 338 344 348 353 356 357 355 354
359 359 359 357 355 355 354 354 355 355 356 357 359 362 363 364 363 362 360 358 355 354 353 353 353 354 354 355 355 354 353 350 349 347 347 348 350 351 352 352 350 348 346 343 342 342 340 338 336 335 333 331 332 333 334 337 340 341 344 346 343 336 333 334 336 337 337 339 339 337 335 333 330 330 331 334 339 344 349 352 353 354 355 355 354
359 360 360 359 358 356 354 354 355 355 356 357 360 362 363 364 364 362 361 359 356 355 354 354 354 355 355 355 355 354 354 353 351 350 349 349 350 352 353 354 351 349 346 343 341 340 337 335 333 331 331 330 330 332 333 335 338 342 345 344 339 336 339 340 341 340 340 340 338 336 334 333 332 334 338 342 346 350 352 353 353 353 355 355 354
358 359 360 361 360 359 357 355 355 355 356 357 360 362 363 364 364 363 361 359 358 356 355 354 355 355 355 355 355 355 355 354 353 352 351 350 350 352 353 354 352 351 349 346 343 341 338 336 333 332 332 331 332 333 334 336 339 342 341 338 338 343 347 347 346 344 342 340 338 336 335 336 338 341 345 347 349 351 352 353 353 354 355 355 354
355 359 361 361 361 361 360 357 356 355 357 358 359 362 363 364 364 363 361 360 359 357 356 355 355 355 356 355 356 356 355 355 354 353 353 352 351 351 352 353 353 353 352 349 345 342 340 338 336 335 336 336 338 339 339 340 341 341 340 340 344 349 351 350 349 346 342 340 339 338 339 341 344 346 347 348 349 350 352 353 354 354 354 353 353
355 357 360 362 362 362 362 360 358 356 356 357 359 361 362 363 363 363 361 361 359 358 357 356 355 356 356 356 356 356 356 356 355 354 353 353 352 351 351 352 352 353 353 351 347 344 343 341 340 339 339 340 343 344 345 345 345 344 343 344 348 351 351 350 348 344 342 341 342 342 343 344 345 346 347 348 350 351 352 353 353 353 352 351 352
357 357 359 361 362 362 362 361 360 357 356 357 359 360 362 363 364 363 362 361 360 359 358 358 356 356 356 356 356 356 356 356 356 355 354 353 352 351 350 351 351 352 353 351 349 347 345 344 344 344 343 344 346 347 348 348 348 348 346 345 347 348 347 346 344 343 344 345 346 346 345 345 346 347 349 350 351 351 350 350 350 350 350 351 351
357 357 358 360 361 361 361 361 361 359 357 357 358 360 361 363 363 363 362 361 361 360 359 358 357 356 356 355 355 356 356 356 356 355 354 353 352 351 351 351 351 352 353 352 350 350 350 351 350 348 347 347 348 349 350 351 351 351 349 346 346 345 345 346 347 347 348 348 348 347 347 348 349 350 350 349 349 348 349 349 350 351 351 351 347
356 358 357 358 359 360 361 361 361 360 358 357 358 361 362 363 363 363 362 361 361 360 359 359 358 357 356 356 356 356 356 356 356 355 355 354 353 351 351 352 351 352 353 352 352 353 354 355 353 351 351 351 351 352 352 353 353 352 351 349 349 350 350 350 352 352 351 350 349 350 350 352 352 351 350 349 349 349 350 351 352 352 350 346 339
356 358 357 358 359 359 360 361 361 361 359 358 360 361 362 363 363 363 363 362 361 361 360 360 359 358 357 357 356 356 356 357 356 355 354 352 350 350 349 350 351 351 351 350 351 353 354 354 353 352 353 353 353 354 354 354 355 354 352 352 353 355 355 355 355 355 354 353 353 353 354 354 353 352 351 350 350 351 352 353 353 352 347 341 334
354 355 357 359 360 360 359 361 362 361 359 359 361 362 363 364 363 363 363 362 362 362 361 361 360 360 359 357 356 356 356 356 355 354 352 350 348 348 348 347 346 346 345 347 351 353 353 353 353 353 355 355 355 355 355 355 356 355 354 354 356 358 358 358 357 356 355 355 355 356 356 355 354 354 352 351 352 353 353 352 352 350 346 339 333
352 354 356 359 362 362 360 360 362 362 359 359 362 365 365 365 364 364 364 363 362 363 362 362 361 360 360 358 358 357 356 355 354 354 354 353 352 351 349 346 345 343 343 348 354 356 355 354 355 355 356 356 356 356 356 356 356 356 356 355 357 359 359 359 358 358 357 357 357 357 357 356 356 355 353 352 353 353 352 350 349 347 343 336 329
350 352 354 358 362 363 362 362 365 363 360 361 364 366 366 365 364 364 364 364 363 363 363 362 361 361 360 360 359 358 357 356 355 356 356 356 355 354 353 351 349 347 348 351 354 356 356 356 357 357 357 357 357 356 357 357 357 357 357 357 357 359 360 360 359 359 359 358 357 357 357 356 355 354 352 352 352 351 349 349 347 342 336 330 325
350 352 354 357 360 364 365 366 366 364 361 362 363 364 364 364 364 363 364 365 364 364 364 363 363 363 363 361 361 360 359 358 357 356 356 356 356 356 355 355 353 352 353 354 354 355 355 357 357 357 357 358 358 358 357 357 357 357 357 357 357 357 358 359 359 358 358 358 357 357 357 356 355 354 352 351 350 350 348 345 341 335 331 327 324
348 350 352 355 358 362 367 368 366 364 362 361 362 362 363 364 362 361 364 365 366 366 365 364 364 364 364 364 364 363 362 361 359 358 356 356 356 356 356 357 356 356 356 356 355 355 356 356 357 357 357 358 358 358 358 358 358 358 358 358 358 357 357 357 357 357 358 357 357 357 356 355 355 354 353 352 351 349 346 341 335 331 329 327 325
348 349 351 353 356 361 365 366 365 365 365 364 362 362 363 363 361 360 361 363 365 366 366 366 365 364 363 363 364 364 365 364 363 361 359 358 357 356 357 357 358 357 357 357 357 356 356 356 357 357 358 358 358 359 359 359 359 359 359 359 359 358 357 357 356 357 357 358 357 357 356 355 355 354 353 352 350 346 341 336 332 330 328 327 327
349 350 351 353 355 358 362 364 363 364 365 365 365 364 364 364 364 362 360 360 362 362 361 362 364 365 364 364 363 363 365 366 365 364 363 360 358 357 357 357 357 357 357 357 357 356 357 357 357 357 358 359 359 359 358 357 356 355 355 357 359 357 357 358 358 358 358 357 358 357 356 355 355 354 352 350 347 342 338 333 331 330 329 329 329
349 350 352 353 354 357 360 362 362 362 363 364 365 365 365 364 364 364 363 362 361 358 356 358 362 364 365 365 363 361 363 366 366 365 364 362 360 358 357 355 355 355 355 355 356 356 356 357 358 359 359 358 357 356 355 355 355 353 352 355 357 357 357 358 358 358 358 358 358 357 356 356 355 353 350 348 344 339 335 332 330 330 330 330 331
347 349 351 352 354 354 356 359 360 360 360 361 362 363 364 363 362 362 364 364 363 360 359 360 362 363 361 362 362 360 362 366 367 366 364 363 361 360 358 357 356 355 354 354 355 355 356 357 358 359 360 359 358 358 357 356 357 356 354 355 355 356 357 358 358 358 358 357 357 357 355 354 353 351 349 347 343 337 332 330 330 331 331 331 332
345 347 349 351 353 353 354 355 358 359 359 359 359 360 361 361 359 360 363 363 363 363 360 360 362 361 357 358 360 359 360 365 367 365 364 363 361 360 359 358 357 357 356 355 356 357 357 359 360 361 361 360 360 360 359 357 357 357 356 356 356 357 358 359 358 358 357 357 356 355 353 351 350 348 346 343 338 333 330 330 330 330 330 331 330
344 345 347 349 351 352 353 353 355 356 358 358 359 359 360 360 359 360 361 363 364 364 361 360 361 359 356 358 360 359 358 363 366 365 364 363 362 361 360 359 359 359 358 358 358 359 359 361 363 362 361 361 361 361 360 359 358 357 357 357 358 358 358 358 358 358 357 356 354 352 350 349 347 344 341 337 334 331 330 330 330 330 330 330 329
342 343 345 347 349 351 352 353 355 356 356 357 358 359 360 360 359 358 360 361 362 362 362 360 360 358 356 358 360 358 357 362 365 364 363 362 362 361 361 361 361 361 360 360 360 361 362 362 362 362 361 361 360 360 359 359 358 358 358 358 358 358 357 356 355 354 354 353 351 348 347 345 342 337 334 332 331 330 330 330 330 330 329 329 328
339 341 343 345 347 349 351 352 354 354 356 357 359 359 359 360 359 359 360 361 360 362 362 361 360 359 358 358 359 359 359 362 364 363 362 363 362 362 362 363 363 362 362 361 362 362 363 362 363 363 362 360 358 357 357 357 358 358 358 357 357 356 354 353 351 350 349 348 347 345 343 339 335 332 332 331 330 330 330 330 329 329 329 328 327
337 338 340 343 345 346 348 350 353 353 355 357 359 359 359 359 359 359 359 359 359 360 360 360 359 359 358 358 360 362 363 364 363 362 361 362 362 362 363 364 364 363 362 361 361 362 362 363 362 362 361 360 359 358 357 356 357 357 357 356 354 353 351 350 349 348 346 346 345 343 339 335 332 331 332 331 330 329 329 329 329 328 328 327 326
335 335 337 340 342 344 346 349 351 353 354 356 356 356 356 357 358 359 359 359 359 359 360 360 359 359 359 359 361 362 363 363 363 362 361 361 361 362 363 362 362 362 362 362 360 361 361 362 362 361 360 359 360 358 356 356 356 356 355 353 352 351 350 349 347 345 343 341 340 337 334 331 330 330 330 330 329 329 329 329 329 328 328 327 326
334 334 335 337 339 340 342 345 349 350 352 353 353 353 354 354 356 357 358 357 357 358 358 358 358 357 358 359 359 359 360 362 362 360 359 360 360 360 360 359 359 359 360 361 360 360 360 360 359 359 358 357 356 356 355 354 354 353 351 350 349 348 347 344 342 339 337 335 334 332 330 329 329 330 330 329 328 328 328 328 328 327 327 327 326
334 333 332 334 337 337 339 341 344 346 348 350 351 352 353 354 354 355 356 355 356 356 356 356 356 357 358 358 357 357 356 358 359 360 359 359 359 358 358 358 358 358 358 358 357 356 355 355 354 353 353 352 351 351 350 349 349 347 345 343 342 342 341 338 335 333 332 332 331 330 330 329 329 329 329 329 328 328 327 327 327 327 327 327 326
333 333 331 332 334 335 335 337 339 340 342 345 346 348 351 353 353 353 354 354 354 354 354 353 353 353 353 353 353 352 351 352 356 359 358 357 356 357 357 356 356 355 355 353 351 349 349 350 349 349 349 348 346 345 343 342 341 340 338 335 335 334 334 332 331 330 330 331 331 331 331 330 329 329 328 328 327 327 327 326 326 326 326 326 326
332 332 331 331 332 333 333 334 335 336 338 339 340 342 345 348 348 347 349 351 352 351 348 344 342 343 345 347 346 344 345 346 349 352 353 354 353 353 353 353 353 352 351 349 346 345 345 345 345 344 344 343 340 338 337 336 335 334 333 332 331 331 331 331 330 330 329 329 329 330 330 330 329 329 328 327 327 327 327 327 327 326 326 326 325
330 330 330 330 331 332 332 332 333 334 333 333 334 334 335 338 341 342 343 347 349 347 342 337 336 337 339 341 340 339 340 341 342 343 345 345 343 340 340 342 344 345 344 343 340 339 339 339 339 338 338 336 335 334 333 332 332 331 330 329 330 330 330 329 330 329 329 329 329 328 328 329 328 328 327 327 326 325 325 324 325 325 325 324 324
329 329 328 328 329 330 331 331 331 332 331 330 330 329 328 329 333 336 338 339 341 341 340 339 338 337 336 336 336 337 337 338 338 338 337 336 333 332 332 333 335 336 336 336 335 334 334 333 333 332 332 331 330 330 330 329 329 328 328 328 328 328 328 329 329 328 327 327 327 327 326 326 325 325 325 324 324 323 323 323 323 323 323 323 323
328 327 326 326 325 326 328 329 330 330 330 329 328 327 326 325 327 331 334 335 335 336 338 339 338 336 333 332 333 334 334 335 335 334 333 331 330 329 329 329 330 330 330 330 330 329 329 329 328 328 328 327 328 328 328 328 327 327 327 327 327 326 326 326 326 325 325 325 325 324 324 324 324 324 324 324 324 323 323 323 322 321 320 319 318
326 326 325 323 322 322 325 326 328 328 329 328 327 326 325 325 325 327 329 330 330 330 331 332 331 330 330 329 330 330 331 332 331 330 329 328 328 328 328 328 328 328 327 327 326 326 326 326 326 325 326 326 326 326 326 325 325 325 325 324 324 324 323 323 322 322 322 322 322 322 322 322 322 322 322 322 321 321 320 319 317 315 313 310 308
Wind_Speed
49 49 49 50 50 50 49 47 46 46 46 46 45 43 41 40 38 36 34 32 30 28 27 26 24 22 22 21 21 22 23 23 23 22 21 21 20 20 19 19 19 18 17 17 17 16 16 16 18 20 21 20 20 20 20 20 20 18 16 13 10 9 9 10 12 10 7 7 8 7 8 11 11 11 12 13 14 15 16 15 15 15 14 14 13
49 49 49 50 50 51 50 49 47 46 47 47 46 44 42 41 39 38 37 35 32 31 29 28 26 25 24 23 23 23 24 23 24 24 24 23 22 22 21 21 21 20 19 19 18 18 17 17 16 18 20 20 19 20 21 21 21 19 16 14 11 10 10 9 11 12 9 6 7 8 8 10 10 9 11 13 15 15 15 14 13 12 12 13 13
49 49 49 49 49 50 51 50 49 48 47 47 47 45 43 42 40 40 38 36 35 33 31 30 28 27 26 25 24 24 25 25 25 25 25 24 23 23 23 22 22 21 21 20 19 19 19 18 17 16 17 18 17 17 17 18 18 17 15 14 13 12 11 10 12 13 13 10 8 8 8 8 8 9 11 14 16 16 17 16 13 12 12 14 15
49 49 49 48 47 48 50 51 51 50 49 48 47 46 45 43 42 41 39 38 37 35 34 32 31 30 29 28 27 26 26 27 27 27 26 26 25 24 24 23 23 22 21 20 20 20 20 20 18 17 17 18 17 16 16 16 16 17 16 15 15 14 12 12 13 14 15 14 11 10 10 10 9 10 13 16 16 17 18 17 15 14 14 15 16
50 50 50 48 47 47 48 50 51 52 51 50 48 47 46 45 44 43 41 40 39 37 36 35 34 33 32 30 29 29 28 28 29 30 29 27 26 25 25 24 24 23 22 21 21 21 21 21 19 18 19 19 18 17 17 17 17 17 17 17 16 15 14 14 15 15 17 18 16 14 13 12 12 12 14 18 19 19 19 18 16 16 15 16 17
50 50 50 49 49 47 46 47 50 51 52 51 50 48 48 47 46 45 44 43 41 40 39 38 37 36 34 33 31 31 30 29 29 30 31 30 29 27 26 25 25 24 23 22 22 21 22 21 20 20 20 20 19 18 18 18 18 18 18 18 17 16 16 16 16 17 18 19 19 17 15 14 14 14 15 18 21 22 22 21 19 17 17 18 19
49 49 49 49 49 49 47 46 47 49 51 51 50 49 49 49 49 48 46 45 44 43 42 41 39 38 36 35 34 32 31 30 30 30 31 31 31 30 29 28 27 26 25 24 23 23 22 22 21 21 21 21 20 19 19 18 19 19 19 18 17 17 17 17 17 18 19 19 19 19 17 16 16 16 17 19 21 22 23 24 22 20 20 21 22
48 48 48 49 49 49 48 46 45 46 47 49 50 50 49 49 49 49 48 47 47 45 44 42 41 39 38 37 36 34 33 33 32 30 31 32 32 31 30 30 29 28 27 26 25 24 24 23 23 22 22 22 21 20 20 20 20 20 19 18 18 18 17 17 17 17 18 18 19 19 18 17 17 17 18 20 21 22 22 22 23 23 23 23 22
47 47 47 48 48 48 47 46 45 45 45 47 49 50 50 49 49 49 49 49 48 47 45 43 42 41 40 39 38 37 36 36 34 32 31 32 32 32 30 30 30 30 29 28 27 26 25 24 24 23 23 22 22 21 21 20 20 20 19 18 18 18 18 17 17 17 18 19 19 18 18 18 17 18 19 20 22 23 22 21 22 22 23 22 21
44 44 44 43 43 43 43 44 45 45 45 46 48 49 49 49 49 49 49 50 49 48 46 45 44 42 41 40 39 39 39 38 36 34 33 32 32 32 32 31 30 31 31 30 30 28 27 26 25 24 24 23 23 22 21 21 21 20 20 19 19 19 18 18 18 18 18 19 19 18 19 19 17 18 20 21 21 22 21 21 21 20 21 21 19
43 42 43 42 40 38 37 39 42 44 45 45 46 48 49 49 49 49 49 49 49 49 48 47 46 44 43 42 41 41 40 39 37 36 34 33 32 33 33 32 31 31 31 31 31 29 28 27 26 25 25 24 23 22 21 20 20 21 20 20 19 18 18 17 17 17 18 19 19 19 20 20 18 19 21 21 20 20 19 19 19 18 18 20 19
44 44 45 45 43 39 36 37 40 44 46 46 45 46 48 48 49 49 49 49 49 49 49 48 47 46 44 43 43 42 41 39 38 36 35 33 33 33 33 33 32 31 31 30 30 30 28 27 26 25 25 24 23 22 21 21 21 21 20 18 17 16 16 17 17 18 19 20 21 21 21 21 20 20 20 20 18 17 16 15 15 15 16 18 18
45 45 46 46 45 43 40 38 38 42 46 46 45 44 46 48 49 50 50 49 49 49 50 49 48 47 46 45 44 44 43 41 39 38 36 34 34 34 34 33 32 31 30 30 29 29 28 28 27 26 25 24 24 23 23 22 21 21 20 18 17 17 18 18 19 20 21 22 23 23 21 20 21 20 17 16 15 14 14 13 14 14 16 17 17
46 46 47 47 47 47 45 41 38 39 43 45 45 44 45 47 48 49 49 49 49 50 50 50 49 48 47 46 46 45 44 42 41 39 37 36 35 35 35 34 33 32 31 30 29 28 28 27 27 25 24 23 23 23 22 21 21 21 20 20 20 20 21 21 22 22 23 23 23 22 20 20 21 19 13 12 13 13 13 14 14 15 16 17 16
42 45 46 46 46 46 46 45 43 41 39 42 46 46 44 45 46 48 49 49 50 50 50 50 50 49 48 47 47 46 45 44 42 41 39 37 36 36 36 36 35 34 32 31 30 29 28 27 27 26 25 24 23 22 21 21 21 21 21 21 21 22 22 22 22 22 22 22 21 21 20 19 19 17 14 13 14 14 14 15 16 16 18 17 16
38 42 44 44 44 44 44 45 46 45 41 41 44 47 46 44 44 46 48 48 49 50 50 51 50 50 49 48 48 47 46 44 43 42 40 38 37 37 37 37 37 37 35 33 32 31 29 29 28 27 26 25 24 23 22 22 22 23 23 23 23 23 23 22 22 22 22 22 22 21 21 20 19 18 17 16 16 15 16 18 17 17 18 17 16
33 38 42 43 43 43 43 43 45 46 45 43 44 47 48 46 44 44 46 48 49 50 50 51 50 50 50 49 49 48 46 45 44 43 41 39 38 37 37 38 38 38 37 35 34 33 32 31 30 29 29 27 26 25 24 24 24 24 25 25 25 25 25 23 23 23 23 23 23 23 22 21 20 19 19 18 17 16 18 20 18 17 17 17 16
27 32 36 39 42 43 43 43 44 45 47 47 47 47 47 47 45 43 44 47 49 50 50 50 50 50 50 50 50 48 47 45 44 42 41 39 38 38 37 37 38 38 37 36 35 35 34 33 32 32 31 29 27 26 26 26 26 26 26 26 26 27 25 23 23 24 24 23 23 23 22 21 20 20 20 19 18 18 20 20 18 16 17 16 15
21 26 28 31 36 40 42 42 42 45 48 49 48 48 47 47 45 44 44 45 47 49 49 49 50 50 50 51 50 49 48 46 45 43 41 40 39 38 37 37 37 37 37 36 36 36 35 34 33 33 31 29 28 28 28 27 27 27 26 26 27 26 22 20 21 22 22 22 22 22 22 21 21 21 21 20 19 18 19 18 16 16 16 15 15
14 19 23 26 30 35 39 40 41 43 47 49 48 48 48 47 46 45 44 45 46 48 49 49 50 50 50 50 50 50 49 48 46 44 42 41 40 38 37 37 37 36 35 35 35 34 33 33 32 32 31 29 29 29 29 28 28 27 26 27 27 25 21 20 20 21 21 22 22 23 23 23 23 23 23 21 19 18 16 15 15 15 15 15 16
13 15 18 23 27 31 35 38 39 41 44 46 47 48 48 48 48 47 45 45 46 47 49 49 49 50 50 50 50 51 50 49 48 46 44 42 41 39 39 39 37 35 34 34 33 32 31 31 31 30 30 29 29 29 29 29 29 29 28 28 26 24 23 23 22 22 23 24 25 25 25 25 25 26 25 22 19 17 16 15 15 15 16 17 17
18 17 18 20 24 28 33 36 38 40 42 44 46 47 48 48 49 48 47 46 46 47 49 49 49 49 49 50 50 51 51 50 49 48 45 44 42 41 41 40 38 37 36 35 35 33 31 30 29 28 27 27 28 29 30 30 30 31 30 29 27 26 27 26 25 25 26 27 27 28 28 27 27 26 25 23 20 18 17 17 16 17 18 18 18
21 21 20 20 22 25 30 34 37 40 42 44 45 46 47 48 49 49 48 47 47 47 48 49 49 49 48 49 50 50 50 50 50 49 47 45 44 43 42 41 39 39 39 38 37 35 32 31 29 27 26 27 28 29 30 32 33 33 32 31 30 29 29 29 29 29 30 30 30 30 29 28 27 27 26 25 23 21 20 20 20 20 19 19 19
23 24 24 23 23 24 27 32 36 40 43 45 46 46 46 48 50 50 49 48 47 47 48 49 49 49 49 49 49 49 50 50 50 49 48 46 45 44 43 42 41 40 40 40 39 37 35 33 31 28 27 27 27 28 29 31 33 33 34 35 34 33 32 33 33 32 32 32 32 30 29 27 26 25 24 24 24 24 24 24 23 22 20 20 19
25 26 27 27 26 26 27 29 34 40 43 45 47 48 47 48 50 51 49 48 48 48 48 48 49 50 50 50 49 49 48 48 49 50 49 47 46 45 44 43 43 42 42 41 40 38 37 35 33 31 29 28 28 29 29 29 29 29 30 32 34 34 34 34 33 33 33 32 31 29 26 23 22 21 22 22 23 24 24 24 22 20 19 19 17
27 28 29 29 29 28 29 30 33 38 43 46 47 48 48 49 50 51 50 48 48 48 49 49 49 50 50 50 50 49 47 47 48 49 49 48 46 45 44 44 43 43 43 43 41 40 38 37 35 33 31 30 30 30 30 29 28 27 26 26 28 29 29 30 30 30 30 28 27 25 22 19 19 20 20 20 21 21 20 19 18 18 18 16 13
29 30 30 31 31 31 31 31 32 36 42 46 48 48 49 49 50 51 51 50 50 49 49 48 49 49 51 51 50 48 46 46 48 49 49 49 47 45 44 43 43 43 44 44 44 42 41 39 37 35 33 32 32 32 32 31 29 27 25 24 24 24 24 25 26 26 25 25 23 21 18 18 19 19 19 19 19 18 17 16 17 18 16 13 9
28 31 31 31 31 32 32 32 32 36 41 46 47 48 49 50 51 52 52 52 50 49 48 48 49 50 50 50 48 46 45 47 48 50 51 49 46 44 42 40 40 41 41 41 42 42 42 40 39 37 36 35 35 34 34 33 31 27 24 22 22 22 22 23 24 24 24 23 22 20 20 20 20 20 19 17 17 16 16 17 19 19 15 11 9
30 32 31 29 29 31 32 32 32 35 41 45 47 48 48 49 50 50 51 51 50 49 48 49 49 50 50 50 49 48 48 50 52 53 51 49 46 43 39 36 36 36 36 35 36 38 40 40 40 39 38 37 36 36 35 34 32 29 26 23 22 23 23 24 25 25 24 23 22 22 22 22 21 21 18 15 15 18 19 20 19 17 13 11 12
33 33 31 28 28 29 31 31 31 34 40 44 45 45 45 46 47 48 49 50 50 49 49 48 48 47 48 49 50 51 52 53 52 51 50 48 47 43 38 34 32 31 31 30 32 35 37 39 39 39 38 38 38 38 37 36 34 32 29 25 24 25 26 26 27 26 26 25 24 24 23 23 23 21 18 15 17 20 21 19 17 14 13 13 14
35 35 32 29 27 27 29 30 29 33 40 43 43 44 45 45 46 47 48 50 50 49 49 48 47 46 46 47 48 50 52 51 50 49 48 47 46 43 39 35 32 30 28 29 31 34 36 38 39 39 39 40 41 40 39 37 35 34 31 29 27 27 27 27 27 27 27 26 26 25 24 24 23 21 17 16 18 20 20 17 15 14 14 14 15
35 36 34 30 28 27 28 28 28 34 41 44 45 46 47 48 48 48 49 49 49 48 48 47 47 46 46 46 46 48 49 49 48 48 47 46 45 43 40 37 34 32 30 31 33 34 36 38 39 39 40 41 42 40 39 37 35 34 33 31 30 30 29 29 28 27 27 27 26 26 25 23 22 20 17 17 19 20 18 15 15 15 16 16 16
34 36 34 31 28 26 25 25 28 35 42 46 48 49 50 50 50 50 50 50 49 48 48 47 46 45 46 46 46 46 47 46 46 47 46 46 44 42 40 38 37 35 34 36 36 36 37 39 40 40 40 41 40 38 37 35 33 32 32 31 31 30 31 30 29 29 29 28 27 26 24 21 20 20 18 18 20 19 17 16 16 17 17 17 15
32 34 33 31 29 26 22 21 26 33 38 42 46 50 51 52 52 51 51 51 51 50 48 47 45 43 43 44 44 44 44 44 44 44 45 45 44 41 38 37 36 37 38 39 39 39 39 40 40 40 41 40 39 37 35 33 32 32 31 29 28 28 27 27 27 28 28 27 26 26 23 21 21 21 20 20 20 19 18 17 18 19 18 17 14
29 30 30 29 29 27 24 22 24 30 34 36 39 43 46 49 51 52 52 52 52 50 47 46 45 44 44 43 41 39 40 42 42 42 42 42 43 43 40 38 38 39 40 41 41 41 40 41 41 40 40 40 39 38 35 34 33 32 29 27 26 25 23 23 25 26 26 25 26 25 23 22 22 22 21 20 19 19 19 19 19 19 18 16 14
24 27 27 27 29 29 27 25 24 27 31 35 38 40 42 43 45 47 49 51 51 49 45 43 43 44 45 45 40 35 35 37 40 40 40 40 42 43 44 44 45 45 44 43 42 41 40 41 41 40 40 41 39 35 32 30 29 28 28 28 27 24 23 23 25 25 26 26 26 26 25 24 24 24 22 20 19 19 19 19 20 19 16 16 15
22 24 24 25 27 28 29 29 27 25 26 30 35 40 42 42 42 44 47 50 50 48 45 43 43 44 45 44 40 34 31 34 38 39 39 39 40 41 43 45 45 46 46 44 42 41 40 41 40 39 40 40 36 32 31 28 25 24 25 27 27 26 26 26 26 26 27 28 28 27 26 26 25 24 23 22 20 20 20 20 19 17 15 16 16
19 22 22 23 24 26 28 30 29 25 23 26 30 35 39 42 43 43 45 47 48 47 44 43 44 45 44 42 39 33 29 32 36 38 39 40 41 41 43 42 41 41 42 41 40 39 39 39 39 39 39 36 32 30 30 28 25 24 24 25 27 29 29 30 29 29 29 30 29 28 27 25 24 22 22 21 21 21 20 20 18 16 16 17 17
16 18 19 21 22 23 25 26 27 25 24 27 31 34 38 41 43 44 45 46 48 47 45 44 45 45 42 40 38 33 29 31 35 38 39 40 41 42 42 41 40 39 38 37 37 37 37 36 36 37 36 34 30 29 27 25 23 23 23 24 26 30 33 35 35 34 34 32 28 26 24 22 21 20 20 21 21 20 19 18 18 17 17 17 16
13 15 16 17 18 19 20 21 23 24 26 29 33 37 40 42 44 45 45 45 46 46 45 44 44 43 40 39 38 35 32 32 35 36 37 39 42 42 42 41 41 40 37 37 37 36 34 33 33 33 34 32 29 27 25 22 19 19 21 24 26 30 33 34 32 31 31 30 27 23 20 19 20 21 21 20 19 18 18 18 18 17 17 16 15
12 12 13 15 16 17 19 21 23 25 27 30 34 38 41 42 43 43 44 44 44 45 44 43 43 41 39 37 38 38 36 33 32 35 39 42 43 42 41 40 40 38 36 37 38 35 32 31 32 32 32 30 26 23 21 20 18 19 22 24 25 26 27 26 24 22 23 23 23 22 19 19 21 22 21 20 18 18 19 19 18 17 17 17 16
11 10 11 12 13 15 18 22 25 26 28 31 36 40 42 42 41 41 42 42 43 43 43 42 40 39 37 36 38 41 39 34 33 37 41 41 41 40 39 39 38 36 35 36 35 33 32 32 32 31 30 29 26 22 20 20 20 22 23 23 22 23 24 24 23 22 21 21 23 23 22 22 22 22 21 21 20 20 21 20 19 19 20 20 18
10 9 9 10 11 12 16 20 24 26 29 32 36 38 39 39 39 40 41 41 41 41 41 40 38 37 36 36 37 39 37 36 37 40 41 40 39 39 38 37 35 34 32 31 30 31 32 32 31 30 29 29 28 25 22 22 22 23 23 23 24 25 25 24 24 24 23 24 25 26 25 24 23 22 21 22 21 21 21 21 20 21 21 20 19
7 6 5 7 8 9 12 17 22 26 29 32 35 36 35 36 37 39 39 38 38 38 37 37 36 35 36 36 36 35 35 37 39 40 39 38 37 35 34 33 32 31 30 29 30 32 34 34 33 33 31 29 28 26 24 23 23 23 25 25 26 25 24 24 24 24 24 25 25 25 24 24 24 23 23 23 23 22 21 21 21 21 21 20 20
6 5 3 1 4 6 8 12 17 22 26 28 30 32 33 34 35 36 37 36 36 35 34 34 34 36 37 38 36 35 37 39 39 38 38 38 35 33 32 31 31 30 30 31 33 34 34 33 32 31 29 27 26 25 24 23 24 24 24 24 24 23 23 23 23 24 24 25 25 24 24 24 24 24 24 24 24 22 22 22 21 21 21 21 21
6 6 7 5 6 9 10 10 11 14 17 20 22 24 28 30 33 35 36 37 37 36 35 35 36 38 39 38 36 36 37 39 40 39 39 38 35 34 33 32 31 31 30 31 31 31 30 29 28 27 25 25 24 23 22 22 23 22 21 20 20 20 21 22 23 23 24 24 24 24 23 23 23 23 22 23 24 23 22 22 22 21 21 21 21
6 6 8 8 9 11 13 13 13 12 14 19 24 27 28 31 33 35 37 39 38 37 35 34 35 36 36 35 34 33 34 37 38 39 38 37 36 35 34 34 33 31 30 29 29 27 26 25 25 24 24 23 23 22 22 21 20 20 19 18 19 20 20 21 21 22 22 23 23 23 22 23 24 24 23 23 23 22 21 21 21 21 21 21 22
7 7 9 10 9 10 13 14 16 18 19 22 26 29 31 32 33 35 37 39 39 37 34 32 31 32 33 33 33 33 33 33 33 33 33 33 31 30 30 30 30 29 28 26 25 23 22 21 21 21 21 22 22 22 22 21 20 20 19 19 20 20 20 20 21 22 22 22 22 21 21 22 23 23 22 21 20 20 19 20 20 20 21 21 21
9 7 9 11 11 11 12 14 16 18 21 22 25 27 30 32 34 35 35 35 34 32 29 27 25 25 26 28 28 29 29 29 28 27 27 25 24 23 22 23 23 23 23 22 21 20 19 19 20 20 21 21 21 21 20 20 19 19 19 18 19 19 19 20 21 21 21 21 20 20 19 19 19 18 18 17 17 17 16 17 18 19 19 20 20
11 9 9 12 14 14 14 15 16 18 19 21 24 25 27 30 33 34 33 33 33 32 30 28 27 26 26 27 27 26 26 25 24 24 23 22 21 20 19 19 19 19 19 18 18 18 18 18 19 19 19 19 19 19 18 18 17 17 17 17 17 16 17 17 18 17 17 17 17 16 15 15 14 14 14 14 15 15 15 16 16 16 16 16 16
11 10 9 11 14 16 15 16 17 18 19 20 23 25 26 28 30 32 32 32 32 32 32 31 30 29 28 27 26 25 24 23 22 22 21 21 20 19 17 17 16 16 16 17 17 16 16 16 17 17 18 18 18 17 17 16 15 15 15 15 14 13 13 13 12 11 11 12 12 12 11 12 12 13 13 13 13 13 13 14 14 14 14 14 14
Wind_Direction
219 220 222 223 223 221 218 217 218 219 221 223 226 228 229 229 230 232 234 235 235 234 234 234 234 236 235 230 226 224 223 220 217 217 218 219 220 223 224 225 227 225 222 222 221 223 225 221 216 214 215 218 221 224 229 236 242 247 249 248 247 255 259 263 271 273 265 262 268 267 273 282 288 292 298 305 314 321 324 328 331 330 332 336 341
219 221 222 223 224 224 222 219 219 220 222 224 227 229 230 231 232 233 234 234 234 234 234 234 236 238 237 235 231 227 225 223 221 220 220 219 219 221 223 224 227 228 226 224 222 223 225 226 224 220 220 223 223 222 226 232 239 244 245 244 247 253 258 268 279 282 275 260 263 273 280 287 289 293 305 316 326 330 333 339 339 337 341 345 348
220 221 222 223 226 226 225 223 221 221 222 224 227 229 231 232 233 234 234 234 234 233 233 234 237 239 238 237 233 230 227 225 223 223 223 223 221 220 222 224 226 228 229 227 225 225 227 228 229 228 228 231 230 228 230 232 238 244 246 248 254 254 256 268 279 285 288 284 279 285 292 291 290 302 317 325 330 333 338 345 347 346 350 350 349
219 221 222 224 226 226 227 226 225 224 224 225 227 229 230 232 233 234 235 235 235 234 234 235 237 239 239 238 235 233 230 226 225 225 225 226 224 222 222 224 226 228 230 230 228 228 230 231 231 230 232 235 236 236 237 238 241 246 250 254 259 259 260 266 273 282 290 293 296 303 308 306 303 314 325 328 331 334 340 346 347 349 353 351 347
218 220 222 224 225 226 228 228 227 227 226 227 227 229 230 231 233 234 235 236 236 236 237 237 238 239 240 239 237 236 233 230 227 226 226 227 226 225 224 225 227 229 231 232 233 233 235 236 234 232 233 235 235 236 238 241 243 246 250 253 258 262 263 265 271 278 284 290 298 304 309 309 308 318 330 331 331 336 342 345 347 348 349 346 344
218 219 221 222 224 226 228 229 229 230 230 229 229 230 230 231 233 234 236 237 238 238 239 240 240 241 241 240 239 238 237 235 231 228 228 228 228 227 227 228 230 230 231 232 234 235 238 239 238 237 237 238 238 238 239 242 245 247 251 254 257 260 261 263 268 271 277 284 293 300 306 308 309 319 331 330 329 336 341 341 344 347 342 339 341
217 219 220 222 223 226 228 230 231 232 232 232 232 232 232 232 233 235 236 237 238 239 240 241 242 242 242 241 239 239 239 238 236 233 230 230 230 230 229 230 232 233 233 232 232 233 236 238 240 240 241 244 245 245 245 247 250 252 253 255 256 258 260 262 264 267 273 279 286 293 300 304 307 316 327 328 330 336 338 335 338 343 338 335 336
217 218 219 221 224 226 229 231 233 234 234 234 234 234 234 234 234 235 236 237 238 239 241 242 242 243 242 242 241 239 239 239 239 237 234 232 232 232 232 232 233 234 234 233 232 232 233 236 239 240 243 246 249 251 252 254 255 257 257 257 257 259 261 263 264 266 271 276 281 288 294 298 302 313 323 327 329 334 335 332 333 336 334 333 333
216 218 219 221 225 228 230 231 233 234 235 235 236 235 235 235 235 235 236 237 238 239 240 241 242 242 242 242 241 240 239 239 239 238 236 234 233 233 233 232 233 234 235 235 234 233 234 235 238 240 243 246 249 252 254 255 256 258 259 260 260 261 262 264 266 269 273 277 281 286 290 293 300 312 320 326 329 331 332 330 327 328 328 332 337
214 215 217 219 223 225 228 231 234 235 236 236 237 237 236 235 235 235 236 237 237 238 239 240 240 241 242 241 240 240 239 240 240 239 238 237 236 236 235 233 233 234 235 237 238 237 236 237 238 241 243 245 248 250 251 252 254 255 257 259 260 262 263 265 267 271 276 280 283 287 289 291 301 312 318 325 330 329 328 326 323 323 322 329 341
213 212 214 217 221 223 226 230 234 236 238 239 238 238 237 235 234 235 236 237 237 238 237 238 239 240 241 241 240 240 240 240 240 239 239 238 239 239 238 237 235 235 236 237 239 240 240 241 241 241 242 244 245 247 248 250 251 253 254 256 258 259 260 263 267 272 277 282 285 288 289 293 303 311 316 323 327 324 322 321 317 318 319 325 337
214 213 216 220 223 226 230 235 235 236 238 240 240 238 237 235 234 234 234 235 236 237 236 237 238 239 240 240 240 240 241 241 241 239 239 238 239 240 240 239 239 238 238 238 239 241 242 244 244 243 242 242 243 245 247 248 249 250 249 249 253 257 258 262 267 272 277 282 285 286 288 293 301 309 316 321 320 315 313 311 308 312 318 323 330
219 218 221 225 227 227 229 234 237 237 236 238 241 240 237 235 234 233 233 234 235 236 236 236 237 238 239 240 240 241 242 242 242 241 240 239 239 240 240 240 240 241 241 241 241 242 243 245 246 246 244 243 243 245 247 248 249 248 246 246 249 254 258 261 265 270 275 279 282 283 286 292 298 307 315 314 308 303 301 300 302 308 316 321 326
224 225 227 230 233 233 232 233 236 238 237 236 238 240 239 237 235 234 233 233 234 235 236 236 236 237 238 240 241 242 242 243 243 242 242 241 240 240 240 241 242 243 244 245 244 244 245 247 248 249 248 248 247 248 249 249 250 250 249 249 250 253 256 258 262 267 272 276 280 283 288 294 298 303 306 298 292 291 291 293 299 305 311 315 324
228 230 232 233 235 235 236 237 238 238 239 236 236 239 241 240 237 234 232 232 233 234 235 236 236 237 238 239 240 242 243 244 244 243 243 243 242 242 241 242 243 244 245 246 247 248 248 249 251 251 251 252 252 252 253 254 255 256 255 254 254 255 256 257 261 265 270 275 280 285 291 295 294 294 293 288 285 283 285 287 291 299 305 310 322
232 234 237 237 236 236 237 239 240 239 239 237 235 237 240 241 239 236 233 232 233 234 235 236 236 237 238 238 239 241 243 244 244 244 244 244 243 243 242 242 244 245 246 247 248 249 250 250 251 252 252 254 254 254 256 257 259 260 259 259 258 258 257 258 261 265 270 275 279 284 289 290 287 286 289 289 286 283 281 280 283 292 300 306 319
236 238 241 240 240 238 237 239 241 240 238 237 236 236 239 241 240 237 234 232 232 233 234 235 236 237 238 238 238 240 242 243 243 244 244 244 244 244 243 243 244 245 247 248 249 250 251 251 251 252 253 254 254 255 257 257 259 260 261 262 261 260 260 260 261 264 267 272 277 281 283 283 282 284 288 288 285 281 277 277 283 290 295 301 311
246 245 246 244 243 242 241 242 243 242 239 238 236 236 237 239 240 239 236 233 232 233 234 235 236 236 237 238 239 240 242 243 243 244 244 244 244 244 243 243 244 246 247 248 249 250 251 251 252 253 254 254 254 256 257 257 258 258 258 260 260 260 262 262 262 264 267 270 273 276 279 281 281 284 288 288 284 279 275 278 284 285 286 293 302
262 259 257 254 249 246 245 245 245 243 241 239 237 235 236 238 239 239 238 236 234 233 233 234 236 236 237 238 239 240 242 243 243 244 244 244 243 243 243 243 244 245 246 246 247 249 250 250 250 251 252 253 253 255 257 257 256 256 256 258 259 261 264 265 265 266 269 271 274 276 279 282 283 284 287 286 284 281 278 279 279 276 278 287 294
271 272 273 269 260 253 249 247 246 244 241 239 237 236 237 238 238 238 238 236 234 233 233 234 235 236 237 237 238 239 240 242 243 244 245 244 244 243 242 242 244 245 245 245 246 247 248 248 248 248 249 251 253 254 255 255 254 254 254 256 260 264 269 270 269 270 272 274 276 278 280 282 282 283 285 286 287 285 279 275 272 270 274 281 287
264 269 274 275 271 266 259 253 249 246 242 239 237 237 237 238 238 238 237 235 233 232 232 233 235 236 237 237 237 238 239 240 242 244 245 245 245 243 242 243 244 245 246 246 246 247 246 246 247 248 249 251 254 255 256 256 256 256 256 259 264 270 273 272 272 272 273 274 276 277 279 280 281 283 286 288 287 282 276 272 271 272 275 279 284
264 264 265 269 270 271 268 261 253 247 243 239 236 236 237 238 238 238 237 235 233 232 232 232 234 235 236 237 237 238 239 240 241 243 245 246 246 244 243 244 246 247 248 249 249 249 249 248 249 250 252 254 256 258 260 261 260 260 261 264 267 268 269 270 271 271 272 273 275 276 277 278 281 283 285 285 284 280 277 276 276 275 275 278 283
267 263 260 262 265 267 268 265 257 249 243 239 237 237 237 237 237 236 235 234 232 232 231 231 232 234 236 236 237 237 238 239 240 242 244 245 246 246 245 245 247 247 249 251 253 254 254 254 254 255 255 256 258 260 262 263 263 264 266 267 266 264 265 266 267 269 271 272 273 273 274 277 280 282 282 282 283 281 279 279 278 276 277 283 286
267 262 258 258 260 261 264 264 260 252 245 240 237 236 236 237 236 235 234 233 231 231 231 230 230 232 234 236 237 237 237 238 239 242 244 245 245 246 246 245 246 247 249 252 255 257 258 259 261 261 261 261 261 262 262 262 263 265 266 266 263 262 262 264 266 268 269 269 269 270 271 274 277 279 282 284 283 280 278 277 276 278 283 285 283
271 265 260 258 259 260 262 262 259 254 247 241 237 236 234 234 233 232 232 231 229 230 230 230 230 231 233 235 236 237 236 237 238 241 243 244 245 245 246 246 246 247 249 252 255 258 260 262 264 265 266 266 266 265 264 264 264 264 263 261 259 258 259 260 262 263 263 263 265 266 268 272 277 281 283 282 277 273 272 272 274 277 278 275 272
277 271 265 262 262 264 265 262 257 253 247 242 239 237 234 231 230 230 229 229 229 230 230 230 230 231 232 234 235 236 236 236 238 240 242 243 244 245 245 246 247 247 249 252 255 257 259 261 263 265 266 265 265 265 265 265 265 264 260 254 250 249 249 250 251 253 255 257 260 263 267 272 275 277 275 270 266 264 264 267 269 267 263 261 267
281 277 271 266 264 267 269 264 256 250 245 240 237 234 231 229 228 228 227 228 229 229 229 230 230 231 232 233 234 235 236 236 238 240 241 242 243 244 245 245 245 245 247 249 251 253 255 257 260 262 262 261 261 262 263 263 263 262 256 247 242 240 241 243 245 248 251 254 256 259 264 266 267 267 264 260 258 257 257 259 258 254 251 252 257
282 278 274 270 267 266 269 266 257 248 242 238 233 231 228 226 225 227 228 229 229 229 229 230 231 232 233 233 234 234 235 236 238 240 242 243 243 243 242 242 241 240 241 244 247 249 251 253 256 257 257 257 258 259 260 261 261 261 254 242 236 237 239 240 243 245 247 250 253 256 258 261 262 261 259 256 251 247 247 249 248 245 243 243 244
281 277 274 273 271 268 267 266 258 247 240 236 234 231 228 226 225 227 230 232 233 235 235 235 236 235 234 233 233 234 235 237 239 242 244 246 246 244 242 241 238 236 237 239 242 245 247 249 251 251 252 254 255 256 258 259 260 260 255 245 238 237 237 237 241 245 248 251 254 256 258 262 265 265 261 253 242 236 236 237 239 240 242 243 241
279 278 276 275 276 273 268 265 260 249 240 234 228 223 221 221 223 225 228 231 234 237 240 241 242 239 236 235 235 236 238 241 242 243 245 248 249 249 247 246 243 240 239 238 239 242 244 246 247 248 250 251 252 253 255 256 257 257 256 250 243 240 239 240 242 246 250 253 254 256 260 266 268 265 260 250 238 231 228 228 233 242 245 240 231
280 279 277 277 279 277 270 267 263 251 238 229 221 217 218 221 225 228 230 231 231 233 236 240 242 242 241 240 239 240 242 243 243 244 246 248 250 252 251 250 248 245 242 240 239 241 243 244 245 245 247 248 250 252 253 255 256 257 257 253 248 243 242 243 245 247 250 252 254 256 261 266 264 258 255 249 236 225 222 226 233 237 234 228 223
280 279 278 278 281 280 275 271 263 248 234 225 222 222 223 225 228 229 230 230 231 232 233 235 237 240 243 244 243 243 243 242 242 244 246 248 250 252 252 251 250 247 244 243 242 243 244 245 245 245 245 247 249 251 252 254 256 257 258 256 252 248 246 245 247 249 250 251 254 257 260 261 256 250 249 244 230 220 222 228 229 225 222 220 218
280 278 277 279 281 282 280 274 260 246 237 231 228 226 224 225 227 228 227 227 229 231 232 234 236 238 240 242 243 245 245 245 244 244 246 247 249 251 252 251 249 247 244 243 244 244 245 246 246 247 248 249 249 251 252 254 255 256 257 257 255 253 251 250 250 251 251 251 253 255 255 254 249 245 243 237 228 226 231 229 220 215 216 215 212
280 278 277 278 279 278 276 265 246 235 231 230 229 228 227 227 228 228 227 227 227 228 231 234 235 238 240 240 241 243 245 245 245 246 246 247 248 248 248 247 245 243 242 243 244 245 245 246 246 246 248 250 251 252 251 250 250 251 252 254 256 255 252 251 250 250 250 250 250 249 249 247 244 242 239 234 229 229 229 222 213 211 211 208 205
276 276 277 278 277 274 270 259 241 228 221 219 221 222 223 224 225 226 228 229 229 230 233 235 236 237 239 238 238 241 244 244 245 245 246 245 245 244 243 242 240 240 240 241 242 243 244 244 245 245 247 248 248 248 247 248 251 254 254 254 255 250 243 243 246 245 244 244 243 243 242 241 240 239 237 234 231 228 225 218 212 209 207 204 205
273 274 275 275 276 273 269 263 254 240 229 223 222 222 222 222 224 227 229 231 232 234 237 237 236 237 237 235 234 237 241 242 242 243 243 244 244 243 242 242 242 243 242 242 242 243 243 244 245 245 246 245 244 246 248 250 254 257 258 258 257 248 237 237 242 243 241 240 238 237 236 234 233 233 234 235 234 228 223 216 209 206 206 207 211
273 274 275 274 275 275 272 268 264 255 242 232 229 229 229 229 230 233 234 234 235 237 239 237 235 235 235 232 230 232 237 240 240 240 242 243 243 242 243 243 244 245 245 244 244 245 245 246 245 244 244 245 245 246 247 246 246 247 250 253 254 248 239 236 239 242 243 240 237 234 231 227 225 227 233 237 233 221 212 208 207 207 209 211 216
276 275 273 268 268 271 271 269 269 265 253 240 232 230 229 229 230 234 238 240 240 240 240 238 236 235 235 233 230 229 233 237 238 237 238 239 239 239 240 241 241 243 245 245 245 245 245 246 245 243 242 244 244 243 241 241 241 243 244 246 248 247 244 241 238 238 240 239 234 227 222 220 223 229 233 232 223 211 205 205 208 208 206 208 218
285 279 273 266 264 264 266 267 268 266 258 246 238 233 231 229 230 233 238 242 243 241 241 240 239 238 238 235 231 229 231 234 235 234 235 236 237 238 238 238 238 239 241 244 243 242 243 245 245 243 243 243 241 242 243 241 238 239 241 244 249 251 248 242 236 233 232 231 226 219 217 223 229 228 223 217 210 204 203 206 210 209 208 212 221
300 289 278 269 263 259 259 260 260 258 254 248 240 235 233 232 233 234 237 240 242 241 241 241 241 242 241 237 233 231 231 230 230 232 233 234 235 236 236 236 236 235 235 238 240 240 242 244 244 244 244 241 235 233 236 237 237 239 241 245 251 251 245 238 231 226 222 221 220 220 223 224 218 210 205 204 203 204 205 206 208 210 213 219 223
306 294 281 270 260 253 248 247 246 247 248 244 237 234 233 233 233 235 236 237 239 240 240 241 243 244 244 240 235 233 232 228 226 230 233 232 231 230 229 230 230 228 225 228 233 237 239 241 242 244 246 244 239 233 229 228 232 239 242 243 245 242 234 225 218 212 211 216 223 227 222 209 201 200 201 203 205 207 206 204 205 208 212 216 219
308 295 281 268 255 246 242 240 239 240 240 236 232 231 232 230 230 232 233 234 236 238 239 240 242 242 239 234 231 231 230 227 224 225 227 226 225 223 222 222 222 220 220 224 229 232 234 237 241 243 244 246 249 247 234 223 225 233 237 235 230 223 218 213 209 209 211 216 219 217 209 201 199 202 206 208 210 209 206 205 206 208 210 213 218
322 307 286 261 244 237 235 234 234 234 233 231 230 230 230 229 228 229 230 230 232 235 237 238 238 234 227 223 223 223 222 221 221 221 220 219 218 218 218 219 219 218 219 221 224 227 229 232 236 239 239 240 243 241 232 225 228 233 232 227 220 215 214 214 214 214 213 210 206 203 201 201 202 201 202 206 209 207 207 211 213 212 212 216 221
346 340 306 262 237 225 223 225 225 226 227 229 229 229 228 225 223 224 225 226 228 231 233 234 232 225 217 214 214 211 207 208 213 216 215 213 213 213 214 216 216 215 214 216 219 221 222 225 227 228 228 227 227 226 224 225 227 224 220 216 213 210 210 211 211 209 205 201 197 196 197 199 198 198 200 203 205 206 208 213 216 217 219 225 228
6 33 35 223 196 180 184 197 207 211 215 218 222 225 223 218 214 215 218 220 223 226 227 226 222 216 210 206 205 202 196 193 198 206 210 211 212 213 213 212 211 210 210 211 211 211 212 214 216 216 214 213 213 214 214 214 212 209 206 205 204 203 203 202 202 200 198 195 194 196 199 199 199 201 204 205 207 208 211 214 217 222 227 230 233
6 47 63 87 122 129 135 152 172 188 194 194 195 201 205 205 204 205 207 209 210 211 210 205 201 198 196 195 195 193 188 184 186 195 204 207 208 209 210 209 208 207 206 205 203 201 202 204 206 206 206 205 203 201 200 197 195 193 193 194 196 196 194 193 194 196 197 197 199 202 203 203 203 205 207 209 210 212 215 219 222 226 229 233 236
6 42 62 79 101 111 115 121 130 141 154 159 158 161 170 180 185 186 187 190 193 191 185 178 176 177 179 181 180 178 176 176 178 183 191 196 197 199 202 203 204 204 202 200 197 196 196 197 198 198 198 196 192 188 186 184 182 182 183 184 186 187 186 188 191 194 196 198 201 202 202 202 204 206 208 211 214 218 223 228 231 233 236 238 241
17 46 65 73 86 101 108 113 119 123 128 135 139 141 147 158 166 168 169 175 181 180 172 163 159 160 165 169 168 164 164 166 169 172 177 182 183 182 183 186 189 190 190 189 187 186 186 187 187 187 186 184 180 176 175 174 175 177 177 178 181 183 184 186 188 191 192 194 195 196 197 200 205 210 214 219 225 231 236 240 243 244 246 248 252
28 45 65 72 79 91 102 108 113 116 119 124 129 129 129 135 143 149 152 156 161 164 162 159 157 156 157 159 159 158 159 161 163 164 166 168 167 165 165 167 169 172 174 175 174 174 174 174 174 174 174 171 168 167 167 166 166 168 171 175 181 184 185 187 190 192 193 194 196 199 204 209 214 220 226 231 237 243 248 253 255 256 256 258 261
34 42 64 79 84 92 101 107 110 113 117 121 123 123 120 120 126 133 139 142 143 147 151 155 156 156 152 148 147 149 151 154 157 159 159 159 158 159 158 156 154 155 157 159 159 161 163 162 161 160 159 158 160 162 164 165 166 168 171 178 185 187 190 193 196 198 201 202 203 205 210 217 224 230 235 240 245 250 254 256 257 258 260 262 264
41 45 59 80 88 94 102 107 109 112 116 118 118 119 119 117 119 124 130 133 134 135 138 141 142 142 141 139 138 139 139 141 146 151 152 153 153 154 154 153 151 149 149 149 149 151 154 155 155 154 155 157 161 163 165 169 172 175 176 180 184 187 191 195 198 199 203 208 211 211 215 223 232 237 241 245 248 250 252 254 257 261 264 266 267